Zurück zum Katalog

CZ-4B DEB

AktivSSO
NORAD 43660·DEBRIS·🇨🇳 China

Gestartet Oct 24, 2018 von Taiyuan Satellite Launch Center

Loading…

Nächste Überflüge (nächste 24 Stunden)

TLE

AktuellSource: Space-Track

Epoche: Sep 14, 2026, 01:14 UTC

1 43660U 18081D   26257.05204994  .00000037  00000-0  64145-4 0  9996
2 43660  99.1043 283.6948 0014202 115.9099 244.3526 13.90633094400266

Verfolge CZ-4B DEB in Echtzeit mit AllMySat

Download on the App Store